Regional Weather Roundup
Issued by NWS

Home | Current Version | Previous Version | Graphics & Text | Print | Product List | Glossary Off
Versions: 1 2 3 4 5 6 7 8 9 10 11 12 13 14 15 16 17 18 19 20 21 22 23 24 25 26 27 28 29 30 31 32 33 34 35 36 37 38 39 40 41 42 43 44 45 46 47 48 49 50

000
ASUS43 KTOP 230608
RWRKS

WEATHER ROUNDUP FOR KANSAS
NATIONAL WEATHER SERVICE GOODLAND KS
100 AM CDT MON OCT 23 2017

NOTE:  "FAIR" INDICATES FEW OR NO CLOUDS BELOW 12,000 FEET WITH NO
SIGNIFICANT WEATHER AND/OR OBSTRUCTIONS TO VISIBILITY.

KSZ001>006-013>018-027>032-041>047-230700-
NORTHWEST KANSAS

CITY           SKY/WX    TMP DP  RH WIND       PRES   REMARKS
GOODLAND       CLEAR     48  27  44 W9        30.06R
6HR MIN TEMP:  46; 6HR MAX TEMP:  61;

HAYS           CLEAR     48  29  47 SW5       30.01F
HILL CITY      CLEAR     50  29  44 W7        30.01S
6HR MIN TEMP:  50; 6HR MAX TEMP:  64;

RUSSELL        CLEAR     49  30  48 S12       29.99F
6HR MIN TEMP:  48; 6HR MAX TEMP:  62;

$$

KSZ061>065-074>080-084>089-230700-
SOUTHWEST KANSAS

CITY           SKY/WX    TMP DP  RH WIND       PRES   REMARKS
DODGE CITY     CLEAR     52  29  41 SW10      30.05F
6HR MIN TEMP:  45; 6HR MAX TEMP:  60;

ELKHART          N/A     52  31  44 SW10        N/A
GARDEN CITY    CLEAR     48  31  51 SW9       30.05S
6HR MIN TEMP:  47; 6HR MAX TEMP:  59;

GREAT BEND     CLEAR     45  31  58 S9        30.02F
LIBERAL        CLEAR     42  33  70 SW7       30.07F
PRATT          CLEAR     46  30  55 S8        30.06S
6HR MIN TEMP:  44; 6HR MAX TEMP:  58;

$$

KSZ066>073-081>083-090>101-230700-
SOUTHEAST KANSAS

CITY           SKY/WX    TMP DP  RH WIND       PRES   REMARKS
CHANUTE        CLEAR     47  39  74 SW7       30.07F
6HR MIN TEMP:  45; 6HR MAX TEMP:  56;

COFFEYVILLE    CLEAR     45  43  93 CALM      30.08S
6HR MIN TEMP:  43; 6HR MAX TEMP:  57;

HUTCHINSON     CLEAR     49  41  74 S8        30.04F
6HR MIN TEMP:  46; 6HR MAX TEMP:  59;

MEDICINE LODGE   N/A     46  38  73 CALM      30.06F
NEWTON         CLEAR     51  41  68 S12       30.05F
PARSONS        CLEAR     43  41  93 CALM      30.09S
6HR MIN TEMP:  43; 6HR MAX TEMP:  54; 6HR PCP: TRACE;

WICHITA INTL   PTCLDY    47  42  83 S6        30.06F
6HR MIN TEMP:  47; 6HR MAX TEMP:  60;

WICHITA JABRA  CLEAR     52  41  66 S12       30.06F
6HR MIN TEMP:  51; 6HR MAX TEMP:  58;

WICHITA MCCONL CLEAR     48  40  73 SW9       30.06F
WINFIELD       CLEAR     47  42  83 S7        30.08F
6HR MIN TEMP:  47; 6HR MAX TEMP:  62;

$$

KSZ007>012-019>026-033>040-048>060-102>105-230700-
NORTHEAST KANSAS

CITY           SKY/WX    TMP DP  RH WIND       PRES   REMARKS
CONCORDIA      CLEAR     53  30  41 S14       29.97F
6HR MIN TEMP:  51; 6HR MAX TEMP:  59;

EMPORIA        CLEAR     44  37  76 S8        30.04F
6HR MIN TEMP:  44; 6HR MAX TEMP:  59;

LAWRENCE       CLEAR     42  40  92 E3        30.04F
6HR MIN TEMP:  42; 6HR MAX TEMP:  53;

MANHATTAN      CLEAR     40  36  86 CALM      30.01F
6HR MIN TEMP:  39; 6HR MAX TEMP:  55;

MARYSVILLE     CLEAR     46  34  61 S8        29.98F
OLATHE IND     CLEAR     44  40  85 S7        30.05F
6HR MIN TEMP:  43; 6HR MAX TEMP:  57;

OLATHE EXE     CLEAR     45  40  82 S6        30.04F
6HR MIN TEMP:  45; 6HR MAX TEMP:  55;

SALINA         CLEAR     52  39  61 S12       30.01F
6HR MIN TEMP:  47; 6HR MAX TEMP:  63;

TOPEKA BILLARD CLEAR     45  41  86 CALM      30.02F
6HR MIN TEMP:  45; 6HR MAX TEMP:  58;

TOPEKA FORBES  CLEAR     48  39  71 S8        30.02F
6HR MIN TEMP:  45; 6HR MAX TEMP:  57;

$$




USA.gov is the U.S. government's official web portal to all federal, state and local government web resources and services.